Regional Weather Roundup
Issued by NWS Grand Forks, ND

Home | Current Version | Previous Version | Graphics & Text | Print | Product List | Glossary On
Versions: 1 2 3 4 5 6 7 8 9 10 11 12 13 14 15 16 17 18 19 20 21 22 23 24 25 26 27 28 29 30 31 32 33 34 35 36 37 38 39 40 41 42 43 44 45 46 47 48 49 50
000
ASUS43 KFGF 050610
RWRFGF
PRAIRIE TO PINES  WEATHER ROUNDUP
NATIONAL WEATHER SERVICE EASTERN NORTH DAKOTA/GRAND FORKS ND
1200 AM CST THU MAR 05 2015

 **SATELLITE DATA USED TO AUGMENT SKY COVER AT AUTOMATED STATIONS**
 *****  WEATHER ACROSS EASTERN NORTH DAKOTA  *****

CITY           SKY/WX    TMP DP  RH WIND       PRES   REMARKS
GRAND FORKS    CLEAR    -14 -19  79 SW6       30.40S WCI -28
6HR MIN TEMP: -14; 6HR MAX TEMP:   1;

GRAND FRKS AFB CLEAR    -10 -18  67 W5        30.38F WCI -21
GRAND FRKS NWS   N/A     -8 N/A N/A W2          N/A
DEVILS LAKE    PTCLDY    -9 -17  70 SW7       30.32S WCI -24
6HR MIN TEMP:  -9; 6HR MAX TEMP:  -2;

FARGO          CLEAR     -6 -14  68 W7        30.43S WCI -20
WAHPETON ARPT  CLEAR     -8 -13  77 W7        30.45R WCI -22
$$

 ***** WEATHER ACROSS CENTRAL AND WESTERN NORTH DAKOTA  *****

CITY           SKY/WX    TMP DP  RH WIND       PRES   REMARKS
BISMARCK       CLEAR     -5 -11  75 E3        30.34S
6HR MIN TEMP:  -6; 6HR MAX TEMP:   5;

MINOT          PTCLDY    -9 -16  71 S9        30.26F WCI -26
6HR MIN TEMP: -11; 6HR MAX TEMP:  -1;

JAMESTOWN      CLEAR    -11 -17  75 SW5       30.35F WCI -23
6HR MIN TEMP: -11; 6HR MAX TEMP:   0;

MINOT AFB      PTCLDY   -12 -18  75 SW8       30.26F WCI -28
GARRISON         N/A    -10 -15  78 S3        30.27F
WILLISTON      PTCLDY     0 -10  63 S6        30.21F WCI -12
DICKINSON      PTCLDY    -1  -9  68 S9        30.17F WCI -16
6HR MIN TEMP:  -3; 6HR MAX TEMP:  11;

HETTINGER      CLEAR      0  -9  65 SE6       30.22S WCI -12
6HR MIN TEMP:  -5; 6HR MAX TEMP:  11;

$$

 *****  OTHER AIRPORT OBSERVATIONS IN OUR AREA  *****

CITY           SKY/WX    TMP DP  RH WIND       PRES   REMARKS
WALHALLA         N/A     -8 -15  71 SW3       30.35S
GRAFTON AIRPOR NOT AVBL
VALLEY CITY AR FAIR      -9 -13  84 SW5       30.37S WCI -21
CANDO          FAIR     -17 -20  83 W8        30.31S WCI -34
CAVALIER APRT  FAIR      -9 -17  70 SW5       30.36F WCI -21
GWINNER        CLEAR     -4 -13  65 W8        30.42S WCI -19
SHEYENNE NWR     N/A    -11 -19  66 CALM      29.95S
ROLLA          FAIR      -9 -17  70 W12       30.24S WCI -29
 ***** THE ABOVE OBSERVATIONS ARE NON NWS ARE NOT QUALITY
       CONTROLLED AND MAY MIS-REPORT RAIN FOR SNOW...
$$

  *****  WEATHER ACROSS NORTHERN MINNESOTA  *****

CITY           SKY/WX    TMP DP  RH WIND       PRES   REMARKS
FLAG ISLAND    CLEAR     -9 -17  70 SW6       30.29S WCI -23
WARROAD        CLEAR    -13 -18  77 SW5       30.31F WCI -25
ROSEAU         CLEAR    -11 -17  77 SW7       30.33S WCI -26
HALLOCK        NOT AVBL
THF RVR FALLS  CLEAR    -11 -27  44 W5        30.35S WCI -23
6HR MIN TEMP: -13; 6HR MAX TEMP:  -2;

BAUDETTE       CLEAR    -13 -18  78 SW6       30.30S WCI -27
6HR MIN TEMP: -13; 6HR MAX TEMP:  -1;

WASKISH        CLEAR    -11 -17  77 SW7       30.32F WCI -26
CROOKSTON      CLEAR     -8 -13  77 W8        30.41S WCI -23
$$
  *****  WEATHER ACROSS CENTRAL AND WEST MINNESOTA  *****

CITY           SKY/WX    TMP DP  RH WIND       PRES   REMARKS
FOSSTON        CLEAR    -18 -24  76 S5        30.35F WCI -31
BEMIDJI        CLEAR    -12 -16  80 W3        30.32S
PARK RAPIDS    CLEAR    -16 -21  78 W6        30.33R WCI -31
6HR MIN TEMP: -16; 6HR MAX TEMP:  -2;

ELBOW LAKE     FAIR     -12 -15  84 CALM      30.41R
6HR MIN TEMP: -12; 6HR MAX TEMP:   0;

WADENA         CLEAR    -11 -15  84 W3        30.36R
DETROIT LAKES  CLEAR     -6  -9  84 CALM      30.36S
MOORHEAD       CLEAR     -4  -9  77 W6        30.43S WCI -16
FERGUS FALLS   CLEAR     -8 -15  71 CALM      30.46R
MORRIS MN      FAIR     -11 -17  77 W6        30.43R WCI -25
STAPLES        CLEAR    -15 -18  84 W6        30.37R WCI -29
$$
  *****  WEATHER ELSEWHERE ACROSS MINNESOTA  *****

CITY           SKY/WX    TMP DP  RH WIND       PRES   REMARKS
DULUTH         CLEAR    -10 -19  64 W8        30.30R WCI -26
6HR MIN TEMP: -10; 6HR MAX TEMP:   2;

INTRNTL FALLS  CLEAR    -14 -19  79 SW3       30.30R
6HR MIN TEMP: -14; 6HR MAX TEMP:  -2;

ELY            CLEAR    -11 -18  70 W5        30.26R WCI -23
CLOQUET        CLEAR     -9 -17  70 W5        30.33R WCI -21
WHEATON        CLEAR     -9 -17  70 W6        30.47R WCI -23
BRAINERD       CLEAR    -11 -17  75 W5        30.38R WCI -23
6HR MIN TEMP: -15; 6HR MAX TEMP:   0;

HIBBING        CLEAR    -13 -19  75 W5        30.30R WCI -25
6HR MIN TEMP: -13; 6HR MAX TEMP:   0;

ALEXANDRIA     PTCLDY    -9 -13  83 SW7       30.39R WCI -24
6HR MIN TEMP: -11; 6HR MAX TEMP:  -2;

SAINT CLOUD    PTCLDY    -8 -15  71 W5        30.42S WCI -19
6HR MIN TEMP:  -8; 6HR MAX TEMP:   1;

MINNEAPOLIS    CLEAR     -2 -12  62 W8        30.43F WCI -17
6HR MIN TEMP:  -2; 6HR MAX TEMP:   5;

$$

  *****  WEATHER ACROSS SOUTH DAKOTA  *****

CITY           SKY/WX    TMP DP  RH WIND       PRES   REMARKS
SIOUX FALLS    CLEAR     -6 -11  79 CALM      30.44F
6HR MIN TEMP:  -6; 6HR MAX TEMP:   5;

BROOKINGS      NOT AVBL
WATERTOWN      PTCLDY   -12 -18  74 S5        30.39R WCI -24
6HR MIN TEMP: -13; 6HR MAX TEMP:  -1;

HURON          CLEAR     -9 -15  75 SW3       30.47R
6HR MIN TEMP: -10; 6HR MAX TEMP:   6;

SISSETON         N/A     -6 -13  71 W7        30.43  WCI -20
ABERDEEN       PTCLDY   -12 -18  74 SW3       30.44S
6HR MIN TEMP: -13; 6HR MAX TEMP:   2;

MITCHELL       CLEAR     -2  -8  76 CALM      30.49R
PIERRE         PTCLDY    -8 -13  78 E5        30.38F WCI -19
6HR MIN TEMP:  -9; 6HR MAX TEMP:  13;

MOBRIDGE       CLEAR     -2  -9  72 SE6       30.32S WCI -14
RAPID CITY     CLEAR      4  -1  80 S7        30.23F WCI  -8
6HR MIN TEMP:   1; 6HR MAX TEMP:  15;

$$

  *****  SOME WEATHER IN NEARBY STATES *****

CITY           SKY/WX    TMP DP  RH WIND       PRES   REMARKS
GLASGOW MT     PTCLDY     9  -2  61 E14       30.08F WCI  -7
6HR MIN TEMP:   9; 6HR MAX TEMP:  17;

GREAT FALLS MT CLEAR     26  14  60 SW10      30.03R WCI  16
6HR MIN TEMP:  25; 6HR MAX TEMP:  35;

CHEYENNE WY    CLEAR      8  -3  61 W10       30.13S WCI  -6
6HR MIN TEMP:   4; 6HR MAX TEMP:  18;

SCOTTSBLUFF NE CLEAR     10   2  69 CALM      30.24S
6HR MIN TEMP:   9; 6HR MAX TEMP:  25;

OMAHA NE       CLEAR      8  -2  63 N8        30.49S WCI  -4
6HR MIN TEMP:   8; 6HR MAX TEMP:  23;

DES MOINES IA  FLURRIES  11   2  67 N7        30.46R WCI   0
6HR MIN TEMP:  11; 6HR MAX TEMP:  22; 6HR PCP: TRACE;

DAVENPORT IA   PTCLDY     7  -2  66 NW8       30.43R WCI  -6
6HR MIN TEMP:   7; 6HR MAX TEMP:  14;

CHICAGO IL     MOCLDY    10  -2  58 NW12      30.34S WCI  -5
6HR MIN TEMP:  10; 6HR MAX TEMP:  17;

EAU CLAIRE WI  CLEAR     -2 -14  56 NW9       30.37F WCI -18
6HR MIN TEMP:  -3; 6HR MAX TEMP:   7;

LA CROSSE WI   CLEAR      3  -7  63 NW8       30.41R WCI -10
6HR MIN TEMP:   3; 6HR MAX TEMP:  12;

$$

  *****  SOME NATIONAL WEATHER *****

CITY           SKY/WX    TMP DP  RH WIND       PRES   REMARKS
LA GUARDIA NY  LGT RAIN  40  36  86 NW7       29.89F FOG
6HR MIN TEMP:  40; 6HR MAX TEMP:  44; 6HR PCP:  0.27;

RALEIGH NC     MOCLDY    64  56  75 SW13      29.88S
6HR MIN TEMP:  64; 6HR MAX TEMP:  70;

ATLANTA GA     CLOUDY    67  61  81 SW12      29.93F
6HR MIN TEMP:  67; 6HR MAX TEMP:  71; 6HR PCP: TRACE;

NEW ORLEANS LA PTCLDY    70  67  90 S9        29.94S
6HR MIN TEMP:  70; 6HR MAX TEMP:  76;

OKLAHOMA CITY  MOCLDY    21  14  74 N7        30.42R WCI  12
6HR MIN TEMP:  21; 6HR MAX TEMP:  25; 6HR PCP:  0.04;

ALBUQUERQUE NM CLEAR     36  15  42 NW16      30.23R
6HR MIN TEMP:  36; 6HR MAX TEMP:  49;

SALT LAKE CITY CLEAR     30  19  63 SE6       30.34R WCI  24
6HR MIN TEMP:  30; 6HR MAX TEMP:  38;

LOS ANGELES CA PTCLDY    57  49  74 NE5       30.15R
6HR MIN TEMP:  57; 6HR MAX TEMP:  64;

BOISE ID       CLEAR     29  15  56 SE6       30.32R WCI  23


USA.gov is the U.S. government's official web portal to all federal, state and local government web resources and services.